Weather History for LGBL - September, 2013

Change the Weather History Date:

Thursday, September 19, 2013

  Actual Average Record
Temperature  
Mean Temperature 72 °F -  
Max Temperature 84 °F - - ()
Min Temperature 60 °F - - ()
Cooling Degree Days 7    
Growing Degree Days 22 (Base 50)    
Moisture  
Dew Point 51 °F    
Average Humidity 45    
Maximum Humidity 73    
Minimum Humidity 24    
Precipitation  
Precipitation 0.00 in - - ()
Sea Level Pressure  
Sea Level Pressure 29.68 in    
Wind  
Wind Speed 5 mph ()    
Max Wind Speed 12 mph    
Max Gust Speed -    
Visibility 6.2 miles    
Events      
T = Trace of Precipitation, MM = Missing Value Source: Averaged Metar Reports

Daily Weather History Graph

Daily Weather History Graph

Search for Another Location

Airport or City:

Trip Planner

Search our weather history database for the weather conditions in past years. The results will help you decide how hot, cold, wet, or windy it might be!

Date:

Astronomy

Sep. 19, 2013 Rise Set
Actual Time 7:13 AM EEST 7:30 PM EEST
Civil Twilight 6:46 AM EEST 7:57 PM EEST
Nautical Twilight 6:15 AM EEST 8:28 PM EEST
Astronomical Twilight 5:43 AM EEST 9:00 PM EEST
Moon 7:18 PM EEST (9/19) 7:01 AM EEST (9/19)
Length of Visible Light 13h 10m
Length of Day
12h 17m
Full, 100% of the Moon is Illuminated
Sep 19
Full
Sep 19
Full
Sep 27
Last Quarter
Oct 5
New
Oct 12
First Quarter

Hourly Weather History & Observations

Time (EEST) Temp. Heat Index Dew Point Humidity Pressure Visibility Wind Dir Wind Speed Gust Speed Precip Events Conditions
12:50 AM 68.0 °F - 51.8 °F 56% 29.68 in 6.2 mi Calm Calm - N/A   Partly Cloudy
1:50 AM 68.0 °F - 51.8 °F 56% 29.68 in 6.2 mi NW 5.8 mph - N/A   Partly Cloudy
2:50 AM 66.2 °F - 51.8 °F 60% 29.68 in 6.2 mi NW 6.9 mph - N/A   Partly Cloudy
3:50 AM 66.2 °F - 50.0 °F 56% 29.68 in - NW 4.6 mph - N/A   Clear
4:50 AM 66.2 °F - 48.2 °F 52% 29.68 in - NW 8.1 mph - N/A   Clear
5:50 AM 64.4 °F - 48.2 °F 56% 29.68 in - SW 4.6 mph - N/A   Clear
6:20 AM 62.6 °F - 48.2 °F 59% 29.68 in - SW 4.6 mph - N/A   Clear
6:50 AM 60.8 °F - 48.2 °F 63% 29.68 in - WSW 6.9 mph - N/A   Clear
7:20 AM 60.8 °F - 48.2 °F 63% 29.71 in - West 4.6 mph - N/A   Clear
7:50 AM 62.6 °F - 50.0 °F 63% 29.71 in - WSW 4.6 mph - N/A   Clear
8:20 AM 66.2 °F - 50.0 °F 56% 29.71 in - WSW 4.6 mph - N/A   Clear
8:50 AM 69.8 °F - 50.0 °F 49% 29.71 in - Calm Calm - N/A   Clear
9:20 AM 73.4 °F - 50.0 °F 44% 29.71 in - Calm Calm - N/A   Clear
9:50 AM 75.2 °F - 44.6 °F 34% 29.71 in - Calm Calm - N/A   Clear
10:20 AM 78.8 °F - 44.6 °F 30% 29.71 in - Calm Calm - N/A   Clear
10:50 AM 80.6 °F - 41.0 °F 24% 29.71 in - Calm Calm - N/A   Clear
11:20 AM 80.6 °F - 41.0 °F 24% 29.71 in - Calm Calm - N/A   Clear
11:50 AM 80.6 °F - 44.6 °F 28% 29.71 in - SE 4.6 mph - N/A   Clear
12:20 PM 82.4 °F - 44.6 °F 26% 29.71 in - East 4.6 mph - N/A   Clear
12:50 PM 82.4 °F - 44.6 °F 26% 29.68 in - East 6.9 mph - N/A   Clear
1:20 PM 82.4 °F - 44.6 °F 26% 29.68 in - ESE 8.1 mph - N/A   Clear
1:50 PM 82.4 °F - 44.6 °F 26% 29.68 in - East 9.2 mph - N/A   Clear
2:20 PM 82.4 °F - 44.6 °F 26% 29.68 in - East 9.2 mph - N/A   Clear
2:50 PM 82.4 °F - 46.4 °F 28% 29.65 in - East 10.4 mph - N/A   Clear
3:20 PM 84.2 °F - 46.4 °F 27% 29.65 in - East 10.4 mph - N/A   Clear
3:50 PM 84.2 °F - 46.4 °F 27% 29.65 in - East 11.5 mph - N/A   Clear
4:20 PM 82.4 °F - 46.4 °F 28% 29.65 in - East 11.5 mph - N/A   Clear
4:50 PM 82.4 °F - 51.8 °F 35% 29.65 in - East 11.5 mph - N/A   Clear
5:20 PM 80.6 °F - 51.8 °F 37% 29.65 in - East 11.5 mph - N/A   Clear
5:50 PM 80.6 °F 81.5 °F 60.8 °F 51% 29.65 in - East 11.5 mph - N/A   Clear
6:20 PM 80.6 °F 81.1 °F 59.0 °F 48% 29.65 in - East 11.5 mph - N/A   Clear
6:50 PM 78.8 °F - 62.6 °F 57% 29.65 in - East 10.4 mph - N/A   Clear
7:20 PM 77.0 °F - 62.6 °F 61% 29.65 in - East 6.9 mph - N/A   Clear
7:50 PM 77.0 °F - 60.8 °F 57% 29.65 in - ENE 6.9 mph - N/A   Clear
8:20 PM 75.2 °F - 60.8 °F 61% 29.68 in - NNW 4.6 mph - N/A   Clear
8:50 PM 73.4 °F - 62.6 °F 69% 29.68 in - NNW 5.8 mph - N/A   Clear
9:50 PM 71.6 °F - 62.6 °F 73% 29.71 in - NW 5.8 mph - N/A   Clear
10:50 PM 68.0 °F - 51.8 °F 56% 29.71 in - Calm Calm - N/A   Clear
11:50 PM 69.8 °F - 51.8 °F 53% 29.74 in - Calm Calm - N/A   Clear